Vertical_Velocity
-2 -2 -0 2 -5 2 -2 -2 1 0 -0 4 -3 -1 2 5 5 -2 11 9 -0 -4 0 -0 -1 -0 -0 -0 -1 -1 -1 -1 -2 -1 -1 -0 -1 -0 0 -0 -1 -0 -1 -1 0 -1 -0 -1 -2
0 -1 -1 1 -1 2 -5 -1 -1 2 3 -0 -6 -0 3 6 -2 2 -8 0 1 -5 -1 1 -0 -1 -1 -1 -1 -1 -0 -0 -0 -1 -0 -1 -0 -1 -1 -1 0 0 -1 -1 -0 -1 0 -0 -0
1 1 2 0 0 -1 1 0 2 5 -0 -3 -1 -1 5 5 0 4 1 -1 1 -0 -2 -2 -2 -2 -1 -2 -2 -1 -0 -1 -1 -1 -1 -0 -0 -0 -1 -2 -3 -1 -1 -1 -1 -2 -2 -3 -2
2 3 -1 2 -2 -6 -0 1 1 1 -4 1 4 -1 -5 15 1 -11 3 -1 -5 2 -1 -2 -1 -2 -1 -1 -1 -1 -1 -1 -1 -1 0 -0 -1 -1 -1 -1 -1 -1 -0 1 0 1 1 -0 -0
3 0 1 2 -5 -3 1 -0 3 -0 -1 -3 -2 3 -1 8 1 -3 2 -2 -3 -2 -1 -2 -1 0 -2 -2 -1 -1 -2 -2 -1 -1 -2 -1 -2 -1 -2 -2 -0 -1 -1 -1 -1 -2 -2 -1 -0
2 3 3 -0 -3 -1 1 -2 -0 -0 1 3 -3 -2 6 -4 0 0 -0 4 2 -1 -5 -1 -2 -0 -3 -1 -1 -1 -1 -2 -2 -2 -2 -1 0 0 -0 -1 -1 -1 -1 -1 -2 -2 -1 -1 -0
0 3 -3 -1 -3 2 -1 -3 0 -2 -1 1 2 -1 4 -2 1 -0 -0 5 9 -2 -7 -1 -2 -1 -1 -1 -1 -0 -1 -2 -2 -2 -1 -0 -1 -1 -2 0 -1 -0 -1 -1 -2 -1 -1 -1 -2
1 3 1 -2 -2 -0 5 -0 2 3 4 -1 -5 2 3 -0 -1 -1 4 4 3 -2 -5 -4 0 -1 -0 -1 -0 -1 -1 -2 -1 -0 -1 -1 -1 -0 -1 -2 -1 -0 -0 -1 -2 -1 -0 -2 -2
-6 3 -0 -6 3 -3 3 -1 -3 1 -5 3 -0 -1 2 -1 -1 0 4 1 1 -2 -1 5 -4 -5 -5 -5 -0 -2 -2 -1 -0 0 -1 0 -6 -3 -4 -0 -0 -0 -1 0 1 1 1 2 2
3 2 -5 -4 -1 -0 -0 -2 -5 -2 1 3 -1 3 4 -1 -1 -3 -1 -1 -0 -1 -0 -1 0 -0 -1 2 -3 -1 0 -0 -3 -4 -2 -1 -1 0 2 -1 -2 1 -0 -1 -1 -1 -1 -1 0
-1 -2 -3 -12 3 0 -0 -1 1 -1 2 -4 -10 -5 -1 -0 -0 -1 -1 -2 -4 -2 1 -0 1 -1 -1 0 -2 -1 -1 -2 -1 -0 1 1 -0 -3 -1 -1 -3 -3 -3 -2 -1 -1 -1 -1 -4
6 -1 2 -11 -1 -1 0 -0 -0 -0 1 -0 8 2 -1 -3 -2 -0 -1 -1 -3 0 -1 -2 -1 0 0 -1 1 1 -0 -2 -1 -3 1 0 -3 -1 -0 0 -1 -2 -1 -2 -2 -2 0 -1 -1
7 -4 0 10 -3 -1 -1 -2 -2 -1 6 -2 -2 3 -1 -1 -1 -1 -0 1 7 0 -3 -2 -0 -1 -1 1 -1 1 -2 -1 -3 -1 -0 2 -1 -2 -0 0 -2 -1 -3 -0 -2 -1 -2 -0 -2
-2 -2 -2 6 -2 1 -0 0 -4 -5 2 0 -2 1 1 -1 -0 3 1 -0 3 -1 -3 -1 -0 -1 -0 -1 0 -2 -2 -1 0 -1 -1 -0 -3 -2 0 0 -1 -1 -1 -0 -2 -3 -3 -1 -1
0 5 1 2 -1 -0 -2 -0 -2 2 1 3 -1 -1 0 -1 1 1 -2 -1 -3 -2 -3 -1 0 1 1 -1 0 -2 -0 1 -2 -2 -1 1 -1 -1 0 -0 -1 -3 -0 -1 0 -2 -2 -1 -3
8 4 6 -2 1 0 -2 -5 -5 3 -2 -1 0 -1 -1 3 -1 1 1 1 1 1 -2 1 -0 1 1 -1 0 -0 -1 0 -3 -1 -0 -1 -1 -2 -1 -0 -1 -0 -0 -3 -1 -4 -1 -3 -4
1 -1 2 3 -1 -1 -3 -2 -0 10 0 -0 0 1 5 -1 -1 3 2 -0 -0 0 0 0 -0 1 0 -0 0 -1 0 0 -3 0 0 -2 -2 -3 -0 -0 -1 -2 -2 -3 -1 -2 -2 -5 -2
-3 3 3 -2 -1 2 2 -3 1 -1 -1 -2 -0 -2 -1 4 -3 -3 3 -2 -1 1 2 2 1 0 -1 -1 -0 -0 0 -0 -2 -0 -2 -2 -2 -1 -1 0 -1 0 -2 1 0 -1 0 -3 -0
1 3 0 -2 0 -3 -3 -1 -4 -1 3 1 -1 -1 -1 -2 2 1 -1 -1 -1 1 3 1 1 1 -0 -1 -0 -1 -0 -1 -1 0 -0 -1 -1 -0 -1 -1 -1 -1 -3 -2 1 -0 -1 -2 -1
3 2 -4 1 1 1 0 -3 -3 0 -2 -2 1 8 9 16 10 4 3 -1 -2 2 3 1 2 1 1 -0 -1 -1 -2 -1 -2 1 -1 -2 -1 -2 1 0 -1 -0 0 -1 0 0 -1 -1 -3
-1 1 -1 -3 1 -0 -1 -2 1 -3 2 7 3 -1 -2 -1 7 4 3 2 1 -1 -0 1 2 1 1 -1 0 -1 0 0 -1 2 -2 -1 -0 -1 2 2 -1 -1 0 -2 -1 0 -2 -3 -1
2 0 1 -0 -2 -4 -6 -7 1 -1 1 1 3 1 3 -2 -3 1 4 4 1 -1 0 1 1 -0 1 0 -1 -0 0 -0 -1 1 -2 -2 -1 -1 -0 -1 -0 1 -1 -2 -1 -1 -1 -2 -2
-5 1 1 0 -0 -3 2 -6 -12 1 2 3 4 1 -1 -1 -1 1 -2 1 5 2 -1 1 1 1 0 1 1 0 1 1 0 2 -1 -0 -0 1 1 -1 -2 -1 0 -0 -0 -1 -1 -2 -1
-0 0 -3 -2 -2 -5 -2 -7 -7 1 -2 3 4 2 0 -1 0 -1 1 2 3 2 -1 1 1 1 1 1 1 1 1 1 0 0 -0 -1 -0 -2 -0 -2 -2 -3 -1 1 -0 -1 -2 -1 -1
-2 -4 -4 -5 -5 -6 -1 -4 -9 1 2 -1 0 3 -1 5 1 2 -1 1 2 -0 -1 1 2 3 2 1 1 2 1 1 0 0 -0 -0 -1 0 0 -0 -2 -1 -1 -0 -1 -1 -1 -0 0
-1 -5 -7 -5 -2 -5 -2 -4 -13 1 1 -0 -1 1 1 1 -0 -1 1 1 -0 -1 1 1 2 2 1 -0 1 -0 -1 -1 -1 1 1 0 -1 -2 -3 -1 -1 -1 -0 1 -1 -1 -1 -1 -1
-1 -0 -4 -4 -1 -4 -5 -3 -1 2 2 2 2 2 2 3 2 2 1 1 4 6 6 3 1 1 0 -0 1 1 0 0 2 -0 -0 -0 0 -0 -2 -1 -0 -0 0 -0 -0 -1 -1 -2 -1
-2 -2 -7 -3 -3 -1 -2 -1 -6 1 2 2 3 2 2 3 1 1 0 0 0 1 0 0 -1 0 1 2 0 1 -0 1 2 3 1 1 3 1 0 0 0 0 0 1 1 -0 -0 -1 -0
1 0 -0 -4 -3 -5 -2 -9 -3 -3 -2 -1 2 2 0 1 0 1 1 2 1 0 -0 -0 0 0 0 1 3 3 4 2 3 2 3 2 1 2 2 1 1 -0 -1 0 -1 -1 -1 -1 -1
1 -1 -3 -6 -4 -1 -5 -13 0 -1 -1 -2 2 2 2 1 1 1 1 1 1 -0 -1 -0 1 -0 1 1 2 2 0 2 4 3 2 2 1 2 2 1 1 1 2 3 2 1 2 -0 0
Height
1519 1518 1518 1519 1526 1521 1519 1504 1491 1496 1497 1500 1502 1506 1510 1512 1516 1533 1531 1531 1530 1531 1534 1536 1538 1540 1541 1542 1542 1543 1543 1542 1542 1542 1541 1540 1540 1539 1538 1537 1536 1536 1535 1534 1533 1533 1532 1531 1531
1518 1518 1519 1517 1526 1528 1517 1494 1498 1497 1501 1503 1506 1507 1508 1518 1519 1524 1529 1531 1532 1531 1534 1536 1538 1539 1540 1541 1542 1542 1542 1542 1542 1541 1540 1539 1539 1538 1537 1536 1535 1535 1534 1533 1533 1532 1531 1531 1530
1517 1518 1519 1516 1516 1524 1513 1495 1497 1500 1502 1505 1507 1509 1511 1520 1522 1525 1528 1531 1533 1534 1534 1536 1538 1539 1540 1541 1542 1542 1542 1542 1541 1540 1540 1539 1538 1538 1537 1536 1535 1534 1533 1533 1532 1531 1531 1530 1529
1517 1519 1517 1518 1517 1501 1498 1497 1496 1502 1506 1505 1507 1512 1516 1520 1523 1523 1528 1531 1533 1533 1535 1537 1538 1539 1540 1541 1542 1542 1542 1542 1541 1540 1539 1539 1538 1537 1536 1536 1535 1534 1533 1533 1531 1530 1529 1528 1527
1517 1516 1517 1516 1511 1497 1493 1497 1498 1503 1505 1506 1507 1513 1518 1521 1522 1524 1528 1530 1533 1533 1535 1536 1538 1539 1540 1541 1542 1542 1542 1542 1541 1540 1540 1539 1538 1537 1536 1535 1535 1534 1533 1532 1531 1530 1529 1528 1527
1517 1513 1517 1519 1505 1491 1492 1497 1499 1500 1503 1506 1509 1511 1520 1521 1523 1525 1528 1532 1533 1534 1534 1536 1538 1539 1540 1541 1541 1542 1542 1541 1541 1540 1540 1539 1538 1537 1536 1535 1534 1534 1533 1532 1531 1530 1528 1527 1526
1514 1513 1513 1507 1501 1493 1492 1496 1499 1499 1503 1506 1507 1510 1518 1520 1523 1526 1528 1532 1534 1533 1534 1536 1537 1538 1539 1540 1541 1541 1541 1541 1540 1540 1539 1538 1538 1537 1536 1535 1535 1534 1533 1531 1530 1529 1527 1526 1525
1512 1510 1511 1503 1500 1492 1489 1495 1498 1498 1502 1505 1507 1509 1517 1519 1521 1526 1529 1532 1532 1533 1534 1534 1536 1538 1539 1539 1540 1540 1540 1540 1540 1539 1539 1538 1538 1537 1536 1535 1534 1534 1532 1531 1530 1528 1527 1525 1523
1510 1512 1510 1503 1498 1490 1489 1495 1499 1499 1502 1505 1507 1509 1511 1515 1520 1524 1527 1530 1531 1532 1534 1536 1536 1536 1536 1537 1539 1539 1539 1539 1539 1539 1538 1537 1537 1536 1535 1535 1534 1533 1532 1531 1529 1527 1526 1525 1523
1506 1506 1500 1492 1489 1486 1489 1493 1498 1501 1503 1506 1508 1511 1511 1514 1518 1521 1524 1527 1528 1531 1533 1535 1537 1537 1538 1538 1538 1538 1538 1538 1537 1537 1537 1537 1537 1537 1536 1535 1534 1533 1531 1529 1528 1526 1525 1523 1522
1499 1499 1494 1490 1492 1489 1490 1494 1497 1499 1501 1502 1504 1508 1510 1513 1516 1519 1522 1525 1527 1529 1532 1534 1535 1536 1537 1538 1537 1537 1537 1537 1537 1537 1537 1537 1537 1536 1535 1534 1533 1532 1530 1529 1528 1526 1525 1523 1521
1498 1494 1491 1491 1494 1492 1492 1496 1497 1498 1498 1499 1501 1503 1507 1511 1514 1517 1520 1523 1525 1528 1530 1531 1532 1535 1536 1536 1537 1537 1537 1537 1537 1537 1537 1537 1536 1536 1536 1535 1533 1532 1530 1529 1527 1525 1524 1522 1520
1494 1490 1490 1492 1493 1494 1493 1496 1497 1495 1498 1499 1501 1503 1506 1509 1512 1515 1519 1523 1524 1526 1527 1529 1531 1532 1534 1534 1535 1535 1535 1536 1536 1536 1536 1536 1536 1535 1535 1533 1532 1531 1529 1528 1526 1524 1523 1521 1519
1489 1491 1488 1490 1491 1494 1495 1496 1495 1492 1495 1497 1499 1502 1505 1507 1510 1513 1516 1520 1521 1522 1524 1526 1529 1530 1531 1532 1533 1533 1534 1534 1535 1535 1535 1535 1535 1534 1534 1532 1531 1530 1528 1526 1524 1523 1521 1520 1518
1487 1490 1488 1487 1489 1492 1496 1496 1493 1491 1492 1495 1497 1500 1503 1505 1508 1510 1513 1515 1517 1519 1521 1523 1526 1528 1529 1529 1531 1531 1532 1533 1533 1534 1534 1534 1534 1533 1532 1531 1530 1528 1527 1525 1523 1522 1520 1518 1517
1486 1486 1494 1486 1488 1492 1494 1496 1484 1486 1489 1492 1495 1498 1500 1503 1505 1508 1510 1512 1514 1516 1517 1521 1523 1525 1527 1527 1529 1530 1531 1531 1532 1532 1532 1532 1532 1531 1531 1529 1528 1527 1525 1523 1522 1520 1519 1518 1516
1485 1495 1491 1487 1481 1487 1492 1489 1481 1481 1485 1489 1492 1495 1497 1500 1503 1505 1506 1508 1511 1513 1515 1518 1520 1522 1524 1526 1527 1528 1529 1530 1530 1531 1531 1531 1530 1530 1529 1528 1527 1525 1524 1522 1521 1520 1518 1516 1515
1493 1491 1485 1483 1481 1483 1490 1488 1482 1482 1484 1486 1489 1492 1494 1497 1498 1502 1504 1505 1508 1510 1512 1515 1517 1519 1521 1523 1525 1526 1528 1529 1529 1529 1529 1529 1529 1529 1528 1527 1525 1524 1523 1522 1520 1519 1517 1516 1514
1483 1484 1482 1474 1474 1481 1484 1485 1479 1479 1481 1483 1486 1489 1491 1493 1495 1498 1500 1502 1504 1507 1509 1511 1514 1516 1518 1521 1523 1524 1526 1527 1527 1528 1528 1528 1528 1528 1526 1525 1524 1523 1521 1521 1519 1518 1516 1515 1515
1484 1483 1480 1482 1476 1480 1480 1481 1475 1473 1475 1478 1481 1485 1487 1489 1492 1495 1497 1499 1501 1504 1506 1508 1511 1513 1516 1518 1520 1522 1523 1525 1525 1526 1526 1527 1527 1526 1525 1524 1523 1522 1521 1520 1519 1517 1516 1516 1514
1480 1484 1481 1477 1481 1482 1477 1481 1475 1470 1470 1474 1477 1481 1485 1487 1491 1494 1496 1497 1498 1500 1503 1506 1509 1512 1514 1516 1519 1520 1522 1523 1524 1524 1525 1526 1526 1525 1524 1523 1522 1521 1520 1519 1518 1517 1515 1515 1514
1486 1480 1476 1475 1484 1499 1477 1509 1477 1469 1468 1471 1476 1481 1485 1487 1489 1491 1494 1496 1496 1498 1501 1504 1507 1510 1512 1514 1517 1518 1520 1521 1522 1522 1523 1524 1524 1523 1523 1523 1521 1519 1518 1518 1517 1516 1515 1514 1514
1481 1479 1477 1475 1480 1483 1482 1506 1475 1460 1472 1473 1476 1481 1485 1487 1488 1489 1490 1493 1496 1497 1499 1502 1505 1508 1510 1513 1515 1516 1518 1519 1520 1520 1521 1522 1522 1522 1521 1521 1520 1519 1518 1516 1515 1515 1514 1514 1513
1478 1480 1483 1483 1489 1515 1480 1493 1481 1467 1466 1474 1476 1480 1484 1487 1487 1488 1489 1491 1494 1496 1498 1501 1503 1506 1509 1512 1513 1515 1516 1517 1518 1518 1519 1519 1520 1520 1519 1519 1518 1517 1517 1515 1514 1513 1513 1513 1512
1481 1494 1513 1507 1508 1508 1510 1501 1478 1469 1469 1471 1476 1480 1484 1487 1488 1488 1489 1491 1493 1495 1497 1500 1503 1505 1508 1510 1511 1512 1514 1515 1516 1516 1516 1517 1517 1518 1517 1517 1516 1515 1514 1513 1513 1512 1512 1511 1510
1487 1493 1505 1511 1514 1506 1508 1506 1481 1472 1472 1474 1478 1481 1484 1486 1488 1489 1490 1492 1494 1496 1498 1500 1502 1504 1506 1507 1509 1510 1511 1512 1513 1514 1514 1514 1514 1514 1515 1515 1514 1514 1513 1512 1511 1510 1510 1509 1509
1488 1502 1486 1503 1504 1505 1498 1479 1472 1472 1475 1476 1479 1482 1484 1487 1489 1490 1491 1492 1494 1496 1498 1499 1501 1503 1504 1505 1506 1507 1508 1509 1509 1510 1511 1511 1511 1511 1511 1512 1512 1511 1510 1509 1508 1507 1507 1507 1506
1482 1485 1495 1499 1506 1503 1489 1468 1480 1475 1476 1476 1478 1481 1485 1487 1488 1489 1490 1491 1492 1494 1495 1496 1498 1500 1502 1503 1504 1504 1504 1505 1506 1506 1507 1508 1508 1507 1507 1508 1508 1508 1507 1506 1505 1504 1504 1504 1504
1488 1490 1487 1487 1489 1499 1500 1487 1468 1471 1469 1473 1477 1481 1484 1487 1488 1490 1491 1491 1491 1492 1493 1494 1496 1497 1498 1499 1500 1501 1502 1502 1502 1502 1503 1504 1504 1504 1503 1503 1504 1503 1503 1503 1501 1501 1501 1500 1500
1470 1470 1474 1489 1491 1495 1499 1487 1460 1464 1466 1470 1475 1480 1484 1486 1488 1489 1490 1490 1491 1491 1492 1493 1494 1494 1495 1495 1496 1497 1497 1498 1499 1499 1500 1500 1500 1500 1499 1499 1499 1499 1499 1498 1497 1497 1497 1496 1495